W5YDW Weather Reports


time (UTC)temp
C
wind
direction
speed
KPH
gust
KPH
rain 1hr
cm
rain 24hr
cm
rain mn
cm
humidity
%
barometer
mb
20260510094504 13 360 3.2 6.4 0.00 0.41 0.05 86 1011.0
20260510093113 13 277 1.6 4.8 0.00 0.41 0.05 85 1011.2
20260510091502 13 277 3.2 6.4 0.00 0.41 0.05 85 1011.4
20260510090003 13 277 4.8 6.4 0.00 0.41 0.05 84 1011.6
20260510084606 14 277 1.6 4.8 0.00 0.41 0.05 82 1011.2
20260510083002 14 277 1.6 6.4 0.00 0.41 0.05 81 1011.3
20260510081611 15 277 3.2 6.4 0.00 0.41 0.05 80 1011.3
20260510080003 15 277 4.8 9.7 0.00 0.41 0.05 75 1011.2
20260510074605 16 5 3.2 4.8 0.00 0.41 0.05 69 1011.0
20260510073002 17 348 0.0 8.0 0.00 0.41 0.05 67 1010.7
20260510071601 17 34 8.0 24.1 0.00 0.41 0.05 67 1010.4
20260510070103 17 260 4.8 11.3 0.00 0.41 0.05 64 1009.3
20260510064502 18 123 9.7 22.5 0.00 0.41 0.05 63 1008.6
20260510063102 18 136 14.5 29.0 0.00 0.41 0.05 62 1008.2
20260510061502 18 159 12.9 22.5 0.00 0.41 0.05 63 1007.4
20260510054503 18 143 16.1 45.1 0.10 0.41 0.05 63 1006.3
20260510053103 17 144 22.5 51.5 0.23 0.41 0.05 69 1005.9
20260510051504 16 150 20.9 35.4 0.33 0.41 0.05 82 1008.8
20260510050004 17 171 16.1 27.4 0.30 0.36 0.36 79 1011.1
20260510044639 16 111 11.3 16.1 0.28 0.30 0.30 80 1012.1
20260510043003 16 180 4.8 8.0 0.15 0.18 0.18 82 1013.3
20260510041603 17 298 8.0 17.7 0.05 0.08 0.08 79 1014.1
20260510040112 18 342 14.5 24.1 0.03 0.05 0.05 71 1013.7
20260510034502 21 355 16.1 32.2 0.00 0.03 0.03 59 1013.4
20260510033102 22 10 25.7 43.5 0.00 0.03 0.03 47 1012.6
20260510031503 22 5 19.3 27.4 0.00 0.03 0.03 46 1011.7
20260510030006 21 31 9.7 16.1 0.00 0.03 0.03 48 1009.5
20260510024602 21 101 11.3 19.3 0.00 0.03 0.03 48 1008.3
20260510023002 21 114 12.9 19.3 0.00 0.03 0.03 48 1007.7
20260510021602 21 107 11.3 16.1 0.00 0.03 0.03 48 1007.8
20260510014502 22 103 6.4 12.9 0.00 0.03 0.03 44 1006.9
20260510013104 23 106 9.7 16.1 0.00 0.03 0.03 40 1006.4
20260510011503 24 106 12.9 19.3 0.00 0.03 0.03 37 1006.1
20260510010002 25 118 12.9 20.9 0.00 0.03 0.03 35 1005.8
20260510004610 26 117 11.3 20.9 0.00 0.03 0.03 35 1005.7
20260510003008 27 127 6.4 14.5 0.00 0.03 0.03 34 1005.8
20260510000004 28 165 9.7 20.9 0.00 0.03 0.03 31 1005.9
20260509234643 28 154 9.7 19.3 0.00 0.03 0.03 30 1006.0
20260509233002 28 154 9.7 14.5 0.00 0.03 0.03 29 1006.1
20260509231604 28 150 8.0 16.1 0.00 0.03 0.03 30 1006.1
20260509230104 28 167 9.7 19.3 0.00 0.03 0.03 29 1006.1
20260509224503 28 107 6.4 22.5 0.00 0.03 0.03 29 1006.1
20260509223103 29 136 12.9 24.1 0.00 0.03 0.03 25 1006.2
20260509221503 30 112 6.4 16.1 0.00 0.03 0.03 25 1006.1
20260509220002 30 114 8.0 16.1 0.00 0.03 0.03 25 1006.2
20260509214603 30 157 4.8 19.3 0.00 0.03 0.03 24 1006.2
20260509213003 30 138 11.3 20.9 0.00 0.03 0.03 25 1006.5
20260509211604 30 120 6.4 22.5 0.00 0.03 0.03 25 1006.6
20260509204503 29 164 9.7 19.3 0.00 0.03 0.03 26 1007.2
20260509203145 30 180 11.3 14.5 0.00 0.03 0.03 23 1007.4
20260509201504 30 145 9.7 17.7 0.00 0.03 0.03 22 1007.5
20260509200003 30 173 8.0 14.5 0.00 0.03 0.03 25 1007.9
20260509194602 29 165 8.0 19.3 0.00 0.03 0.03 26 1008.0
20260509193003 30 200 6.4 16.1 0.00 0.03 0.03 25 1008.2
20260509191616 29 152 8.0 14.5 0.00 0.03 0.03 28 1008.2
20260509190107 28 126 9.7 17.7 0.00 0.03 0.03 27 1008.3
20260509184507 29 201 8.0 17.7 0.00 0.03 0.03 28 1008.4
20260509183106 28 99 9.7 17.7 0.00 0.03 0.03 23 1008.6
20260509181503 28 113 6.4 17.7 0.00 0.03 0.03 29 1008.9
20260509180002 28 123 8.0 16.1 0.00 0.03 0.03 29 1009.2
20260509174614 28 178 1.6 11.3 0.00 0.03 0.03 32 1009.2
20260509173003 27 167 8.0 14.5 0.00 0.03 0.03 37 1009.4
20260509171503 27 170 4.8 9.7 0.00 0.03 0.03 31 1009.5
20260509170002 27 165 4.8 12.9 0.00 0.03 0.03 32 1009.6
20260509164609 27 167 3.2 11.3 0.00 0.03 0.03 34 1009.8
20260509163004 27 216 3.2 11.3 0.00 0.03 0.03 36 1009.6
20260509161605 27 179 4.8 12.9 0.00 0.03 0.03 32 1009.8
20260509160106 26 217 12.9 17.7 0.00 0.03 0.03 40 1009.8
20260509154502 25 254 11.3 17.7 0.00 0.03 0.03 47 1009.8
20260509153105 24 270 3.2 14.5 0.00 0.03 0.03 47 1009.8
20260509151609 23 250 3.2 8.0 0.00 0.03 0.03 52 1009.9
20260509150103 22 250 0.0 3.2 0.00 0.03 0.03 62 1009.7
20260509144503 20 250 1.6 4.8 0.00 0.03 0.03 74 1009.6
20260509143102 18 250 0.0 6.4 0.00 0.03 0.03 81 1009.7
20260509141507 17 250 1.6 6.4 0.00 0.03 0.03 89 1009.9
20260509140006 16 250 1.6 8.0 0.00 0.03 0.03 92 1009.9
20260509134604 15 247 6.4 11.3 0.00 0.03 0.03 94 1010.0
20260509133008 14 141 0.0 0.0 0.00 0.03 0.03 94 1009.7
20260509131610 13 141 0.0 0.0 0.00 0.03 0.03 94 1009.5
20260509130106 12 141 0.0 0.0 0.00 0.03 0.03 94 1009.5
20260509124503 11 141 0.0 0.0 0.00 0.03 0.03 94 1009.4
20260509123104 9 141 0.0 0.0 0.00 0.03 0.03 94 1009.2
20260509121502 8 141 0.0 0.0 0.03 0.03 0.03 92 1009.1
20260509120003 7 141 0.0 0.0 0.03 0.03 0.03 92 1009.0
20260509114602 8 141 0.0 0.0 0.03 0.03 0.03 92 1008.9
20260509113002 8 141 0.0 0.0 0.03 0.03 0.03 92 1008.8
20260509111608 8 141 0.0 0.0 0.00 0.00 0.00 92 1008.6
20260509110103 8 141 0.0 0.0 0.00 0.00 0.00 92 1008.6
20260509104503 8 141 0.0 0.0 0.00 0.00 0.00 92 1008.6
20260509103106 9 141 0.0 0.0 0.00 0.00 0.00 92 1008.5
20260509101502 9 141 0.0 0.0 0.00 0.00 0.00 92 1008.6
20260509100002 10 141 0.0 0.0 0.00 0.00 0.00 92 1008.8